Terug naar catalogus

METEOSAT 9

MSG 2

ActiefWeerGEO
NORAD 28912·PAYLOAD·🇪🇺 EU

Gelanceerd Dec 21, 2005 vanaf Guiana Space Centre

Loading…

TLE

VersSource: Space-Track

Epoch: Sep 14, 2026, 14:01 UTC

1 28912U 05049B   26257.58411439  .00000118  00000-0  00000-0 0  9997
2 28912   9.5602  53.2586 0001968 349.4951 206.7994  1.00275087  7895

Volg METEOSAT 9 in realtime met AllMySat

Download on the App Store